Year,Month,Day,Hour,Minute,Value (Times are PST for temperature in C)
2013,03,23,09,19,2.60
2013,03,23,09,20,2.60
2013,03,23,09,21,2.70
2013,03,23,09,22,2.70
2013,03,23,09,23,2.80
2013,03,23,09,24,2.80
2013,03,23,09,25,2.90
2013,03,23,09,26,2.90
2013,03,23,09,27,3.00
2013,03,23,09,28,3.00
2013,03,23,09,29,3.10
2013,03,23,09,30,3.10
2013,03,23,09,31,3.20
2013,03,23,09,32,3.20
2013,03,23,09,33,3.30
2013,03,23,09,34,3.30
2013,03,23,09,35,3.30
2013,03,23,09,36,3.30
2013,03,23,09,37,3.30
2013,03,23,09,38,3.30
2013,03,23,09,39,3.40
2013,03,23,09,40,3.40
2013,03,23,09,41,3.40
2013,03,23,09,42,3.40
2013,03,23,09,43,3.40
2013,03,23,09,44,3.40
2013,03,23,09,45,3.40
2013,03,23,09,46,3.40
2013,03,23,09,47,3.40
2013,03,23,09,48,3.40
2013,03,23,09,49,3.40
2013,03,23,09,50,3.40
2013,03,23,09,51,3.50
2013,03,23,09,52,3.50
2013,03,23,09,53,3.50
2013,03,23,09,54,3.50
2013,03,23,09,55,3.50
2013,03,23,09,56,3.50
2013,03,23,09,57,3.50
2013,03,23,09,58,3.60
2013,03,23,09,59,3.60
2013,03,23,10,00,3.60
2013,03,23,10,01,3.70
2013,03,23,10,02,3.70
2013,03,23,10,03,3.70
2013,03,23,10,04,3.80
2013,03,23,10,05,3.80
2013,03,23,10,06,3.90
2013,03,23,10,07,3.90
2013,03,23,10,08,4.00
2013,03,23,10,09,4.00
2013,03,23,10,10,4.10
2013,03,23,10,11,4.10
2013,03,23,10,12,4.20
2013,03,23,10,13,4.20
2013,03,23,10,14,4.20
2013,03,23,10,15,4.20
2013,03,23,10,16,4.20
2013,03,23,10,17,4.20
2013,03,23,10,18,4.20
2013,03,23,10,19,4.20
2013,03,23,10,20,4.20
2013,03,23,10,21,4.20
2013,03,23,10,22,4.20
2013,03,23,10,23,4.20
2013,03,23,10,24,4.20
2013,03,23,10,25,4.20
2013,03,23,10,26,4.20
2013,03,23,10,27,4.20
2013,03,23,10,28,4.20
2013,03,23,10,29,4.20
2013,03,23,10,30,4.20
2013,03,23,10,31,4.20
2013,03,23,10,32,4.20
2013,03,23,10,33,4.20
2013,03,23,10,48,4.40
2013,03,23,10,49,4.40
2013,03,23,10,50,4.40
2013,03,23,10,51,4.50
2013,03,23,10,52,4.50
2013,03,23,10,53,4.60
2013,03,23,10,54,4.60
2013,03,23,10,55,4.60
2013,03,23,10,56,4.60
2013,03,23,10,57,4.60
2013,03,23,10,58,4.60
2013,03,23,10,59,4.70
2013,03,23,11,00,4.70
2013,03,23,11,01,4.70
2013,03,23,11,02,4.70
2013,03,23,11,03,4.70
2013,03,23,11,04,4.80
2013,03,23,11,05,4.80
2013,03,23,11,06,4.80
2013,03,23,11,07,4.80
2013,03,23,11,08,4.80
2013,03,23,11,09,4.90
2013,03,23,11,10,4.90
2013,03,23,11,11,4.90
2013,03,23,11,12,4.90
2013,03,23,11,13,4.90
2013,03,23,11,14,4.90
2013,03,23,11,15,5.00
2013,03,23,11,16,5.00
2013,03,23,11,17,5.10
2013,03,23,11,18,5.10
2013,03,23,11,19,5.20
2013,03,23,11,20,5.30
2013,03,23,11,21,5.40
2013,03,23,11,22,5.50
2013,03,23,11,23,5.60
2013,03,23,11,24,5.70
2013,03,23,11,25,5.70
2013,03,23,11,26,5.80
2013,03,23,11,27,5.80
2013,03,23,11,28,5.80
2013,03,23,11,29,5.70
2013,03,23,11,30,5.80
2013,03,23,11,31,5.80
2013,03,23,11,32,5.80
2013,03,23,11,33,5.90
2013,03,23,11,34,5.90
2013,03,23,11,35,5.90
2013,03,23,11,36,6.00
2013,03,23,11,37,6.00
2013,03,23,11,38,6.10
2013,03,23,11,39,6.10
2013,03,23,11,40,6.10
2013,03,23,11,41,6.10
2013,03,23,11,42,6.10
2013,03,23,11,43,6.10
2013,03,23,11,44,6.20
2013,03,23,11,45,6.20
2013,03,23,11,46,6.20
2013,03,23,11,47,6.30
2013,03,23,11,48,6.30
2013,03,23,11,49,6.30
2013,03,23,11,50,6.20
2013,03,23,11,51,6.30
2013,03,23,11,52,6.30
2013,03,23,11,53,6.40
2013,03,23,11,54,6.30
2013,03,23,11,55,6.30
2013,03,23,11,56,6.40
2013,03,23,11,57,6.40
2013,03,23,11,58,6.40
2013,03,23,11,59,6.50
2013,03,23,12,00,6.50
2013,03,23,12,01,6.50
2013,03,23,12,02,6.50
2013,03,23,12,03,6.60
2013,03,23,12,04,6.60
2013,03,23,12,05,6.50
2013,03,23,12,06,6.50
2013,03,23,12,07,6.50
2013,03,23,12,08,6.60
2013,03,23,12,09,6.70
2013,03,23,12,10,6.50
2013,03,23,12,11,6.50
2013,03,23,12,12,6.50
2013,03,23,12,13,6.70
2013,03,23,12,14,6.80
2013,03,23,12,15,6.90
2013,03,23,12,16,6.90
2013,03,23,12,17,6.90
2013,03,23,12,18,6.90
2013,03,23,12,19,6.90
2013,03,23,12,20,6.80
2013,03,23,12,21,6.80
2013,03,23,12,22,6.70
2013,03,23,12,23,6.60
2013,03,23,12,24,6.60
2013,03,23,12,25,6.60
2013,03,23,12,26,6.60
2013,03,23,12,27,6.70
2013,03,23,12,28,6.70
2013,03,23,12,29,6.60
2013,03,23,12,30,6.50
2013,03,23,12,31,6.40
2013,03,23,12,32,6.40
2013,03,23,12,33,6.50
2013,03,23,12,34,6.60
2013,03,23,12,35,6.60
2013,03,23,12,36,6.70
2013,03,23,12,37,6.70
2013,03,23,12,38,6.70
2013,03,23,12,39,6.50
2013,03,23,12,40,6.40
2013,03,23,12,41,6.50
2013,03,23,12,42,6.50
2013,03,23,12,43,6.60
2013,03,23,12,44,6.60
2013,03,23,12,45,6.70
2013,03,23,12,46,6.70
2013,03,23,12,47,6.80
2013,03,23,12,48,6.80
2013,03,23,12,49,6.70
2013,03,23,12,50,6.70
2013,03,23,12,51,6.70
2013,03,23,12,52,6.80
2013,03,23,12,53,6.80
2013,03,23,12,54,6.90
2013,03,23,12,55,6.90
2013,03,23,12,56,6.90
2013,03,23,12,57,6.80
2013,03,23,12,58,6.70
2013,03,23,12,59,6.70
2013,03,23,13,00,6.60
2013,03,23,13,01,6.50
2013,03,23,13,02,6.50
2013,03,23,13,03,6.50
2013,03,23,13,04,6.60
2013,03,23,13,05,6.60
2013,03,23,13,06,6.70
2013,03,23,13,07,6.80
2013,03,23,13,08,6.90
2013,03,23,13,09,7.00
2013,03,23,13,10,7.10
2013,03,23,13,11,7.10
2013,03,23,13,12,7.20
2013,03,23,13,13,7.30
2013,03,23,13,14,7.40
2013,03,23,13,15,7.40
2013,03,23,13,16,7.40
2013,03,23,13,17,7.30
2013,03,23,13,18,7.40
2013,03,23,13,19,7.40
2013,03,23,13,20,7.30
2013,03,23,13,21,7.20
2013,03,23,13,22,7.20
2013,03,23,13,23,7.10
2013,03,23,13,24,6.90
2013,03,23,13,25,6.90
2013,03,23,13,26,6.80
2013,03,23,13,27,6.70
2013,03,23,13,28,6.70
2013,03,23,13,29,6.70
2013,03,23,13,30,6.70
2013,03,23,13,31,6.70
2013,03,23,13,32,6.70
2013,03,23,13,33,6.70
2013,03,23,13,34,6.70
2013,03,23,13,35,6.80
2013,03,23,13,36,6.90
2013,03,23,13,37,7.00
2013,03,23,13,38,7.10
2013,03,23,13,39,7.20
2013,03,23,13,40,7.20
2013,03,23,13,41,7.20
2013,03,23,13,42,7.20
2013,03,23,13,43,7.20
2013,03,23,13,44,7.20
2013,03,23,13,45,7.20
2013,03,23,13,46,7.20
2013,03,23,13,47,7.30
2013,03,23,13,48,7.30
2013,03,23,13,49,7.20
2013,03,23,13,50,7.20
2013,03,23,13,51,7.20
2013,03,23,13,52,7.20
2013,03,23,13,53,7.20
2013,03,23,13,54,7.20
2013,03,23,13,55,7.20
2013,03,23,13,56,7.20
2013,03,23,13,57,7.20
2013,03,23,13,58,7.20
2013,03,23,13,59,7.20
2013,03,23,14,00,7.20
2013,03,23,14,01,7.20
2013,03,23,14,02,7.30
2013,03,23,14,03,7.40
2013,03,23,14,04,7.50
2013,03,23,14,05,7.60
2013,03,23,14,06,7.70
2013,03,23,14,07,7.80
2013,03,23,14,08,7.70
2013,03,23,14,09,7.60
2013,03,23,14,10,7.50
2013,03,23,14,11,7.40
2013,03,23,14,12,7.30
2013,03,23,14,13,7.30
2013,03,23,14,14,7.30
2013,03,23,14,15,7.20
2013,03,23,14,16,7.20
2013,03,23,14,17,7.20
2013,03,23,14,18,7.30
2013,03,23,14,19,7.40
2013,03,23,14,20,7.40
2013,03,23,14,21,7.40
2013,03,23,14,22,7.30
2013,03,23,14,23,7.30
2013,03,23,14,24,7.30
2013,03,23,14,25,7.40
2013,03,23,14,26,7.40
2013,03,23,14,27,7.50
2013,03,23,14,28,7.50
2013,03,23,14,29,7.50
2013,03,23,14,30,7.50
2013,03,23,14,31,7.50
2013,03,23,14,32,7.40
2013,03,23,14,33,7.50
2013,03,23,14,34,7.50
2013,03,23,14,35,7.60
2013,03,23,14,36,7.60
2013,03,23,14,37,7.60
2013,03,23,14,38,7.60
2013,03,23,14,39,7.50
2013,03,23,14,40,7.50
2013,03,23,14,41,7.40
2013,03,23,14,42,7.30
2013,03,23,14,43,7.30
2013,03,23,14,44,7.40
2013,03,23,14,45,7.50
2013,03,23,14,46,7.60
2013,03,23,14,47,7.70
2013,03,23,14,48,7.80
2013,03,23,14,49,7.70
2013,03,23,14,50,7.60
2013,03,23,14,51,7.60
2013,03,23,14,52,7.60
2013,03,23,14,53,7.60
2013,03,23,14,54,7.70
2013,03,23,14,55,7.70
2013,03,23,14,56,7.70
2013,03,23,14,57,7.70
2013,03,23,14,58,7.80
2013,03,23,14,59,7.80
2013,03,23,15,00,7.80
2013,03,23,15,01,7.90
2013,03,23,15,02,8.10
2013,03,23,15,03,8.20
2013,03,23,15,04,8.20
2013,03,23,15,05,8.20
2013,03,23,15,06,8.10
2013,03,23,15,07,8.20
2013,03,23,15,08,8.20
2013,03,23,15,09,8.20
2013,03,23,15,10,8.10
2013,03,23,15,11,8.10
2013,03,23,15,12,8.10
2013,03,23,15,13,8.10
2013,03,23,15,14,8.10
2013,03,23,15,15,8.10
2013,03,23,15,16,8.10
2013,03,23,15,17,8.10
2013,03,23,15,18,8.10
2013,03,23,15,19,8.10
2013,03,23,15,20,8.00
2013,03,23,15,21,8.10
2013,03,23,15,22,8.10
2013,03,23,15,23,8.10
2013,03,23,15,24,8.20
2013,03,23,15,25,8.20
2013,03,23,15,26,8.20
2013,03,23,15,27,8.10
2013,03,23,15,28,8.20
2013,03,23,15,29,8.10
2013,03,23,15,30,8.00
2013,03,23,15,31,8.00
2013,03,23,15,32,8.10
2013,03,23,15,33,8.10
2013,03,23,15,34,8.00
2013,03,23,15,35,8.00
2013,03,23,15,36,7.90
2013,03,23,15,37,7.90
2013,03,23,15,38,7.90
2013,03,23,15,39,7.90
2013,03,23,15,40,7.90
2013,03,23,15,41,7.90
2013,03,23,15,42,8.00
2013,03,23,15,43,8.00
2013,03,23,15,44,8.00
2013,03,23,15,45,7.90
2013,03,23,15,46,8.00
2013,03,23,15,47,8.00
2013,03,23,15,48,8.10
2013,03,23,15,49,8.10
2013,03,23,15,50,8.10
2013,03,23,15,51,8.10
2013,03,23,15,52,8.10
2013,03,23,15,53,8.20
2013,03,23,15,54,8.20
2013,03,23,15,55,8.10
2013,03,23,15,56,8.00
2013,03,23,15,57,7.90
2013,03,23,15,58,7.90
2013,03,23,15,59,7.80
2013,03,23,16,00,7.80
2013,03,23,16,01,7.80
2013,03,23,16,02,7.80
2013,03,23,16,03,7.80
2013,03,23,16,04,7.70
2013,03,23,16,05,7.70
2013,03,23,16,06,7.70
2013,03,23,16,07,7.80
2013,03,23,16,08,7.80
2013,03,23,16,09,7.90
2013,03,23,16,10,7.90
2013,03,23,16,11,7.90
2013,03,23,16,12,7.90
2013,03,23,16,13,7.90
2013,03,23,16,14,7.90
2013,03,23,16,15,7.90
2013,03,23,16,16,8.00
2013,03,23,16,17,7.90
2013,03,23,16,18,7.90
2013,03,23,16,19,7.90
2013,03,23,16,20,7.90
2013,03,23,16,21,7.90
2013,03,23,16,22,8.00
2013,03,23,16,23,8.00
2013,03,23,16,24,8.00
2013,03,23,16,25,8.00
2013,03,23,16,26,8.10
2013,03,23,16,27,8.10
2013,03,23,16,28,8.10
2013,03,23,16,29,8.20
2013,03,23,16,30,8.20
2013,03,23,16,31,8.30
2013,03,23,16,32,8.30
2013,03,23,16,33,8.30
2013,03,23,16,34,8.20
2013,03,23,16,35,8.10
2013,03,23,16,36,8.00
2013,03,23,16,37,8.00
2013,03,23,16,38,7.90
2013,03,23,16,39,7.90
2013,03,23,16,40,7.90
2013,03,23,16,41,7.90
2013,03,23,16,42,7.90
2013,03,23,16,43,7.90
2013,03,23,16,44,7.90
2013,03,23,16,45,7.90
2013,03,23,16,46,7.90
2013,03,23,16,47,7.90
2013,03,23,16,48,8.00
2013,03,23,16,49,8.10
2013,03,23,16,50,8.10
2013,03,23,16,51,8.00
2013,03,23,16,52,7.90
2013,03,23,16,53,7.90
2013,03,23,16,54,7.90
2013,03,23,16,55,7.90
2013,03,23,16,56,7.90
2013,03,23,16,57,7.90
2013,03,23,16,58,7.90
2013,03,23,16,59,7.90
2013,03,23,17,00,8.00
2013,03,23,17,01,8.00
2013,03,23,17,02,8.10
2013,03,23,17,03,8.10
2013,03,23,17,04,8.20
2013,03,23,17,05,8.20
2013,03,23,17,06,8.20
2013,03,23,17,07,8.20
2013,03,23,17,08,8.10
2013,03,23,17,09,8.10
2013,03,23,17,10,8.00
2013,03,23,17,11,8.00
2013,03,23,17,12,8.00
2013,03,23,17,13,8.00
2013,03,23,17,14,8.10
2013,03,23,17,15,8.10
2013,03,23,17,16,8.10
2013,03,23,17,17,8.10
2013,03,23,17,18,8.10
2013,03,23,17,19,8.10
2013,03,23,17,20,8.20
2013,03,23,17,21,8.10
2013,03,23,17,22,8.10
2013,03,23,17,23,8.10
2013,03,23,17,24,8.10
2013,03,23,17,25,8.00
2013,03,23,17,26,7.90
2013,03,23,17,27,7.90
2013,03,23,17,28,7.90
2013,03,23,17,29,7.90
2013,03,23,17,30,7.80
2013,03,23,17,31,7.80
2013,03,23,17,32,7.70
2013,03,23,17,33,7.70
2013,03,23,17,34,7.70
2013,03,23,17,35,7.60
2013,03,23,17,36,7.60
2013,03,23,17,37,7.50
2013,03,23,17,38,7.50
2013,03,23,17,39,7.50
2013,03,23,17,40,7.50
2013,03,23,17,41,7.50
2013,03,23,17,42,7.40
2013,03,23,17,43,7.40
2013,03,23,17,44,7.50
2013,03,23,17,45,7.50
2013,03,23,17,46,7.60
2013,03,23,17,47,7.60
2013,03,23,17,48,7.70
2013,03,23,17,49,7.70
2013,03,23,17,50,7.80
2013,03,23,17,51,7.70
2013,03,23,17,52,7.70
2013,03,23,17,53,7.70
2013,03,23,17,54,7.70
2013,03,23,17,55,7.70
2013,03,23,17,56,7.70
2013,03,23,17,57,7.70
2013,03,23,17,58,7.70
2013,03,23,17,59,7.70
2013,03,23,18,00,7.70
2013,03,23,18,01,7.70
2013,03,23,18,02,7.70
